| time (UTC) | temp F | wind direction | speed knots | gust knots | rain 1hr in | rain 24hr in | rain mn in | humidity % | barometer mb |
| 20260507182121 | 54 | 248 | 0.9 | 3.5 | 0.00 | 0.00 | 0.00 | 42 | 1012.0 |
| 20260507181120 | 55 | 225 | 2.6 | 4.3 | 0.00 | 0.00 | 0.00 | 42 | 1012.0 |
| 20260507180120 | 54 | 225 | 0.9 | 2.6 | 0.00 | 0.00 | 0.00 | 46 | 1012.1 |
| 20260507175120 | 54 | 270 | 3.5 | 7.8 | 0.00 | 0.00 | 0.00 | 45 | 1012.2 |
| 20260507174120 | 54 | 270 | 2.6 | 6.1 | 0.00 | 0.00 | 0.00 | 44 | 1012.3 |
| 20260507173122 | 54 | 248 | 0.9 | 3.5 | 0.00 | 0.00 | 0.00 | 45 | 1012.3 |
| 20260507172120 | 54 | 338 | 2.6 | 7.0 | 0.00 | 0.00 | 0.00 | 44 | 1012.5 |
| 20260507171120 | 54 | 203 | 2.6 | 6.1 | 0.00 | 0.00 | 0.00 | 48 | 1012.7 |
| 20260507170120 | 53 | 293 | 2.6 | 6.1 | 0.00 | 0.00 | 0.00 | 51 | 1012.8 |
| 20260507165120 | 53 | 293 | 0.9 | 1.7 | 0.00 | 0.00 | 0.00 | 46 | 1012.9 |
| 20260507164120 | 53 | 293 | 2.6 | 6.1 | 0.00 | 0.00 | 0.00 | 48 | 1013.0 |
| 20260507163155 | 52 | 270 | 1.7 | 5.2 | 0.00 | 0.00 | 0.00 | 48 | 1013.1 |
| 20260507162120 | 52 | 293 | 2.6 | 5.2 | 0.00 | 0.00 | 0.00 | 50 | 1013.3 |
| 20260507161230 | 52 | 248 | 1.7 | 4.3 | 0.00 | 0.00 | 0.00 | 49 | 1013.3 |
| 20260507160120 | 52 | 293 | 4.3 | 10.4 | 0.00 | 0.00 | 0.00 | 50 | 1013.3 |
| 20260507155120 | 52 | 225 | 0.9 | 4.3 | 0.00 | 0.00 | 0.00 | 50 | 1013.3 |
| 20260507154156 | 51 | 248 | 2.6 | 7.8 | 0.00 | 0.00 | 0.00 | 49 | 1013.3 |
| 20260507153120 | 51 | 203 | 3.5 | 7.0 | 0.00 | 0.00 | 0.00 | 50 | 1013.3 |
| 20260507152120 | 51 | 203 | 0.9 | 3.5 | 0.00 | 0.00 | 0.00 | 50 | 1013.3 |
| 20260507151120 | 50 | 225 | 0.9 | 2.6 | 0.00 | 0.00 | 0.00 | 54 | 1013.1 |
| 20260507150122 | 49 | 225 | 2.6 | 5.2 | 0.00 | 0.00 | 0.00 | 52 | 1013.1 |
| 20260507145120 | 48 | 225 | 0.9 | 1.7 | 0.00 | 0.00 | 0.00 | 55 | 1013.1 |
| 20260507144120 | 48 | 225 | 2.6 | 5.2 | 0.00 | 0.00 | 0.00 | 55 | 1013.3 |
| 20260507143120 | 48 | 225 | 3.5 | 7.0 | 0.00 | 0.00 | 0.00 | 55 | 1013.3 |
| 20260507142120 | 48 | 248 | 2.6 | 7.0 | 0.00 | 0.00 | 0.00 | 55 | 1013.4 |
| 20260507141120 | 48 | 248 | 1.7 | 4.3 | 0.00 | 0.00 | 0.00 | 58 | 1013.5 |
| 20260507140157 | 48 | 225 | 4.3 | 7.8 | 0.00 | 0.00 | 0.00 | 57 | 1013.5 |
| 20260507135120 | 47 | 225 | 0.9 | 4.3 | 0.00 | 0.00 | 0.00 | 61 | 1013.4 |
| 20260507134122 | 47 | 0.0 | 1.7 | 0.00 | 0.00 | 0.00 | 66 | 1013.4 | |
| 20260507133157 | 47 | 225 | 1.7 | 3.5 | 0.00 | 0.00 | 0.00 | 65 | 1013.4 |
| 20260507132122 | 47 | 0.0 | 0.9 | 0.00 | 0.00 | 0.00 | 67 | 1013.3 | |
| 20260507131155 | 46 | 0.0 | 2.6 | 0.00 | 0.00 | 0.00 | 68 | 1013.3 | |
| 20260507130120 | 45 | 248 | 0.9 | 2.6 | 0.00 | 0.00 | 0.00 | 70 | 1013.2 |
| 20260507125122 | 45 | 0.0 | 0.0 | 0.00 | 0.00 | 0.00 | 71 | 1013.0 | |
| 20260507124122 | 44 | 0.0 | 0.9 | 0.00 | 0.00 | 0.00 | 74 | 1013.1 | |
| 20260507123121 | 43 | 0.0 | 0.0 | 0.00 | 0.00 | 0.00 | 76 | 1013.1 | |
| 20260507122122 | 42 | 0.0 | 1.7 | 0.00 | 0.00 | 0.00 | 76 | 1013.1 | |
| 20260507121122 | 41 | 0.0 | 0.9 | 0.00 | 0.00 | 0.00 | 78 | 1013.0 | |
| 20260507120122 | 40 | 0.0 | 0.0 | 0.00 | 0.00 | 0.00 | 81 | 1013.0 | |
| 20260507115122 | 38 | 0.0 | 0.0 | 0.00 | 0.00 | 0.00 | 85 | 1012.8 | |
| 20260507114121 | 36 | 0.0 | 0.0 | 0.00 | 0.00 | 0.00 | 90 | 1012.7 | |
| 20260507113121 | 35 | 0.0 | 0.0 | 0.00 | 0.00 | 0.00 | 90 | 1012.5 | |
| 20260507112121 | 34 | 0.0 | 0.0 | 0.00 | 0.00 | 0.00 | 88 | 1012.5 | |
| 20260507111221 | 34 | 0.0 | 0.0 | 0.00 | 0.00 | 0.00 | 87 | 1012.2 | |
| 20260507111056 | 33 | 0.0 | 0.0 | 0.00 | 0.00 | 0.00 | 86 | 1012.1 |